When you browse on this site, cookies collect data to enhance your experience and personalize the content and advertising you see.
Visit our Privacy Policy to learn more. By continuing to use the site, you agree to this use of cookies and data.
  • In Portugal
  • List of Countries
  • For 7 days
  • Water Temperature
  • Weather Map
  • Weather Widgets
  • user-avatar
    Login

    Hourly Weather Prutz

    Today, 22 September, Sunday

    Time Temperature Precipitation Wind Pressure Humidity
    00:00 +8°C° 0 mm 3 mps 635 mmHg 83%
    01:00 +9°C° 0 mm 3 mps 635 mmHg 86%
    02:00 +9°C° 0 mm 3 mps 634 mmHg 83%
    03:00 +9°C° 0 mm 3 mps 634 mmHg 79%
    04:00 +8°C° 0 mm 3 mps 633 mmHg 76%
    05:00 +9°C° 0 mm 3 mps 633 mmHg 75%
    06:00 +10°C° 0 mm 2 mps 634 mmHg 73%
    07:00 +10°C° 0 mm 2 mps 634 mmHg 72%
    08:00 +13°C° 0 mm 2 mps 634 mmHg 68%
    09:00 +15°C° 0 mm 2 mps 635 mmHg 64%
    10:00 +17°C° 0 mm 2 mps 635 mmHg 60%
    11:00 +18°C° 0 mm 2 mps 635 mmHg 59%
    12:00 +18°C° 0 mm 2 mps 635 mmHg 57%
    13:00 +19°C° 0 mm 2 mps 635 mmHg 55%
    14:00 +18°C° 0.2 mm 2 mps 635 mmHg 61%
    15:00 +18°C° 0.2 mm 2 mps 634 mmHg 67%
    16:00 +17°C° 0.2 mm 2 mps 634 mmHg 73%
    17:00 +15°C° 0.5 mm 1 mps 633 mmHg 79%
    18:00 +14°C° 0.5 mm 1 mps 633 mmHg 86%
    19:00 +13°C° 0.5 mm 1 mps 633 mmHg 92%
    20:00 +13°C° 0.5 mm 1 mps 633 mmHg 92%
    21:00 +13°C° 0.5 mm 1 mps 633 mmHg 93%
    22:00 +12°C° 0.5 mm 1 mps 633 mmHg 93%
    23:00 +12°C° 0 mm 1 mps 632 mmHg 92%

    Tomorrow, 23 September, Monday

    Time Temperature Precipitation Wind Pressure Humidity
    00:00 +12°C° 0 mm 2 mps 632 mmHg 92%
    01:00 +10°C° 0 mm 2 mps 632 mmHg 92%
    02:00 +10°C° 0 mm 2 mps 632 mmHg 92%
    03:00 +11°C° 0 mm 1 mps 632 mmHg 92%
    04:00 +10°C° 0 mm 1 mps 632 mmHg 93%
    05:00 +10°C° 0.5 mm 1 mps 632 mmHg 94%
    06:00 +10°C° 0.5 mm 1 mps 632 mmHg 95%
    07:00 +9°C° 0.5 mm 2 mps 632 mmHg 96%
    08:00 +9°C° 1.8 mm 2 mps 632 mmHg 96%
    09:00 +8°C° 1.8 mm 2 mps 632 mmHg 97%
    10:00 +8°C° 1.8 mm 2 mps 632 mmHg 97%
    11:00 +7°C° 2.8 mm 2 mps 632 mmHg 97%
    12:00 +7°C° 2.8 mm 2 mps 632 mmHg 96%
    13:00 +7°C° 2.8 mm 1 mps 632 mmHg 96%
    14:00 +7°C° 1.7 mm 1 mps 632 mmHg 96%
    15:00 +7°C° 1.7 mm 1 mps 632 mmHg 96%
    16:00 +7°C° 1.7 mm 1 mps 632 mmHg 96%
    17:00 +7°C° 0.2 mm 1 mps 632 mmHg 95%
    18:00 +7°C° 0.2 mm 1 mps 632 mmHg 95%
    19:00 +6°C° 0.2 mm 2 mps 633 mmHg 95%
    20:00 +6°C° 0 mm 1 mps 633 mmHg 95%
    21:00 +5°C° 0 mm 1 mps 633 mmHg 94%
    22:00 +5°C° 0 mm 1 mps 633 mmHg 93%
    23:00 +4°C° 0 mm 1 mps 632 mmHg 91%

    Day after tomorrow, 24 September, Tuesday

    Time Temperature Precipitation Wind Pressure Humidity
    00:00 +4°C° 0 mm 1 mps 632 mmHg 89%
    01:00 +4°C° 0 mm 1 mps 632 mmHg 86%
    02:00 +4°C° 0 mm 1 mps 632 mmHg 85%
    03:00 +4°C° 0 mm 1 mps 631 mmHg 84%
    04:00 +4°C° 0 mm 1 mps 631 mmHg 83%
    05:00 +4°C° 0 mm 1 mps 631 mmHg 81%
    06:00 +5°C° 0 mm 1 mps 631 mmHg 79%
    07:00 +6°C° 0 mm 1 mps 631 mmHg 77%
    08:00 +8°C° 0 mm 1 mps 632 mmHg 73%
    09:00 +10°C° 0 mm 1 mps 632 mmHg 70%
    10:00 +12°C° 0 mm 1 mps 633 mmHg 66%
    11:00 +13°C° 0 mm 1 mps 633 mmHg 62%
    12:00 +14°C° 0 mm 1 mps 632 mmHg 58%
    13:00 +15°C° 0 mm 2 mps 632 mmHg 55%
    14:00 +15°C° 0 mm 2 mps 632 mmHg 56%
    15:00 +15°C° 0 mm 2 mps 632 mmHg 58%
    16:00 +14°C° 0 mm 1 mps 631 mmHg 60%
    17:00 +12°C° 0 mm 1 mps 631 mmHg 68%
    18:00 +10°C° 0 mm 1 mps 630 mmHg 76%
    19:00 +8°C° 0 mm 1 mps 630 mmHg 85%
    20:00 +8°C° 0.1 mm 1 mps 630 mmHg 85%
    21:00 +8°C° 0.1 mm 1 mps 630 mmHg 86%
    22:00 +8°C° 0.1 mm 1 mps 630 mmHg 86%
    23:00 +8°C° 0.2 mm 1 mps 630 mmHg 88%

    25 September, Wednesday

    Time Temperature Precipitation Wind Pressure Humidity
    00:00 +8°C° 0.2 mm 1 mps 630 mmHg 89%
    01:00 +8°C° 0.2 mm 1 mps 629 mmHg 91%
    02:00 +7°C° 0.1 mm 1 mps 629 mmHg 91%
    03:00 +7°C° 0.1 mm 1 mps 629 mmHg 91%
    04:00 +6°C° 0.1 mm 0 mps 629 mmHg 91%
    05:00 +6°C° 0.1 mm 0 mps 629 mmHg 92%
    06:00 +6°C° 0.1 mm 0 mps 629 mmHg 92%
    07:00 +7°C° 0.1 mm 0 mps 629 mmHg 93%
    08:00 +8°C° 0.7 mm 1 mps 629 mmHg 94%
    09:00 +8°C° 0.7 mm 1 mps 629 mmHg 95%
    10:00 +8°C° 0.7 mm 1 mps 629 mmHg 96%
    11:00 +8°C° 1.5 mm 1 mps 629 mmHg 97%
    12:00 +7°C° 1.5 mm 1 mps 629 mmHg 97%
    13:00 +7°C° 1.5 mm 1 mps 629 mmHg 97%
    14:00 +7°C° 0.5 mm 1 mps 629 mmHg 97%
    15:00 +7°C° 0.5 mm 1 mps 629 mmHg 96%
    16:00 +7°C° 0.5 mm 1 mps 629 mmHg 96%
    17:00 +7°C° 0.3 mm 1 mps 629 mmHg 96%
    18:00 +7°C° 0.3 mm 1 mps 630 mmHg 97%
    19:00 +7°C° 0.3 mm 1 mps 630 mmHg 97%
    20:00 +7°C° 0.3 mm 1 mps 630 mmHg 97%
    21:00 +6°C° 0.3 mm 1 mps 631 mmHg 97%
    22:00 +6°C° 0.3 mm 1 mps 631 mmHg 96%
    23:00 +6°C° 0.1 mm 1 mps 631 mmHg 96%

    26 September, Thursday

    Time Temperature Precipitation Wind Pressure Humidity
    00:00 +6°C° 0.1 mm 1 mps 631 mmHg 96%
    01:00 +6°C° 0.1 mm 1 mps 631 mmHg 96%
    02:00 +5°C° 0 mm 1 mps 631 mmHg 94%
    03:00 +5°C° 0 mm 1 mps 631 mmHg 92%
    04:00 +4°C° 0 mm 1 mps 631 mmHg 90%
    05:00 +4°C° 0 mm 1 mps 631 mmHg 88%
    06:00 +5°C° 0 mm 1 mps 632 mmHg 86%
    07:00 +5°C° 0 mm 1 mps 632 mmHg 84%
    08:00 +7°C° 0 mm 1 mps 633 mmHg 79%
    09:00 +9°C° 0 mm 0 mps 633 mmHg 73%
    10:00 +11°C° 0 mm 0 mps 634 mmHg 68%
    11:00 +12°C° 0 mm 0 mps 634 mmHg 64%
    12:00 +13°C° 0 mm 0 mps 635 mmHg 60%
    13:00 +14°C° 0 mm 0 mps 635 mmHg 56%
    14:00 +14°C° 0 mm 0 mps 635 mmHg 57%
    15:00 +15°C° 0 mm 1 mps 634 mmHg 58%
    16:00 +15°C° 0 mm 1 mps 634 mmHg 59%
    17:00 +13°C° 0 mm 1 mps 634 mmHg 67%
    18:00 +10°C° 0 mm 1 mps 633 mmHg 75%
    19:00 +8°C° 0 mm 1 mps 632 mmHg 83%
    20:00 +8°C° 0 mm 1 mps 633 mmHg 83%
    21:00 +8°C° 0 mm 1 mps 633 mmHg 83%
    22:00 +8°C° 0 mm 1 mps 633 mmHg 83%
    23:00 +8°C° 0 mm 1 mps 633 mmHg 82%

    27 September, Friday

    Time Temperature Precipitation Wind Pressure Humidity
    00:00 +8°C° 0 mm 1 mps 633 mmHg 82%
    01:00 +9°C° 0 mm 1 mps 633 mmHg 81%
    02:00 +8°C° 0 mm 1 mps 633 mmHg 83%
    03:00 +8°C° 0 mm 1 mps 632 mmHg 84%
    04:00 +7°C° 0 mm 1 mps 632 mmHg 86%
    05:00 +8°C° 0 mm 1 mps 632 mmHg 85%
    06:00 +8°C° 0 mm 1 mps 632 mmHg 84%
    07:00 +9°C° 0 mm 1 mps 633 mmHg 83%
    08:00 +10°C° 0 mm 1 mps 633 mmHg 78%
    09:00 +12°C° 0 mm 1 mps 634 mmHg 73%
    10:00 +13°C° 0 mm 0 mps 635 mmHg 68%
    11:00 +14°C° 0 mm 1 mps 635 mmHg 67%
    12:00 +15°C° 0 mm 1 mps 635 mmHg 65%
    13:00 +15°C° 0 mm 1 mps 634 mmHg 64%
    14:00 +15°C° 0.2 mm 1 mps 634 mmHg 68%
    15:00 +15°C° 0.2 mm 1 mps 634 mmHg 73%
    16:00 +14°C° 0.2 mm 1 mps 634 mmHg 77%
    17:00 +13°C° 0.5 mm 1 mps 633 mmHg 83%
    18:00 +12°C° 0.5 mm 1 mps 633 mmHg 88%
    19:00 +10°C° 0.5 mm 1 mps 633 mmHg 94%
    20:00 +10°C° 1.2 mm 1 mps 633 mmHg 95%
    21:00 +10°C° 1.2 mm 1 mps 634 mmHg 95%
    22:00 +10°C° 1.2 mm 1 mps 634 mmHg 96%
    23:00 +10°C° 0.6 mm 1 mps 634 mmHg 96%
    Show more